QTR29J OTHH-OKKK

Flight info

Callsign QTR29J
Flight time N/A
Altitude 28000
Route TULUB B457 BHR A453 KUMBO/N0375F240 A453 DEBTI
Aircraft A320/M-SDE3FGHIRWY/LB1

Departure

Time 2026-05-07 16:55
Airport Hamad International Airport (OTHH)

Arrival

Time N/A
Airport Kuwait International Airport (OKKK)
Time Latitude Longitude Altitude Speed Heading
2026-05-07 16:29 25.26632 51.61647 30 ft 0 kts 339°
2026-05-07 16:46 25.26618 51.61653 30 ft 4 kts 337°
2026-05-07 16:46 25.26593 51.61665 30 ft 4 kts 336°
2026-05-07 16:46 25.26573 51.61674 30 ft 4 kts 351°
2026-05-07 16:46 25.26551 51.61670 30 ft 4 kts 52°
2026-05-07 16:47 25.26541 51.61645 30 ft 3 kts 69°
2026-05-07 16:47 25.26539 51.61642 30 ft 0 kts 69°
2026-05-07 16:50 25.26540 51.61644 30 ft 2 kts 69°
2026-05-07 16:50 25.26554 51.61682 30 ft 8 kts 69°
2026-05-07 16:50 25.26577 51.61748 30 ft 10 kts 68°
2026-05-07 16:50 25.26607 51.61833 30 ft 13 kts 70°
2026-05-07 16:51 25.26567 51.61917 29 ft 15 kts 153°
2026-05-07 16:51 25.26464 51.61962 29 ft 17 kts 158°
2026-05-07 16:51 25.26351 51.62013 30 ft 18 kts 158°
2026-05-07 16:51 25.26226 51.62069 30 ft 20 kts 158°
2026-05-07 16:52 25.26108 51.62121 30 ft 18 kts 158°
2026-05-07 16:52 25.25986 51.62175 30 ft 20 kts 158°
2026-05-07 16:52 25.25866 51.62228 30 ft 18 kts 158°
2026-05-07 16:52 25.25757 51.62276 30 ft 14 kts 159°
2026-05-07 16:53 25.25662 51.62317 30 ft 16 kts 158°
2026-05-07 16:53 25.25572 51.62356 29 ft 13 kts 158°
2026-05-07 16:53 25.25487 51.62405 29 ft 15 kts 130°
2026-05-07 16:53 25.25502 51.62518 28 ft 17 kts 68°
2026-05-07 16:54 25.25584 51.62626 27 ft 20 kts 21°
2026-05-07 16:54 25.25738 51.62592 29 ft 37 kts 338°
2026-05-07 16:54 25.26195 51.62391 28 ft 102 kts 338°
2026-05-07 16:54 25.27019 51.62029 24 ft 151 kts 338°
2026-05-07 16:55 25.28051 51.61582 437 ft 160 kts 338°
2026-05-07 16:55 25.29079 51.61106 1070 ft 161 kts 335°
2026-05-07 16:55 25.30151 51.60603 1444 ft 176 kts 335°
2026-05-07 16:55 25.31312 51.60029 1702 ft 191 kts 335°
2026-05-07 16:56 25.32587 51.59429 1933 ft 209 kts 336°
2026-05-07 16:56 25.34096 51.59068 2036 ft 238 kts
2026-05-07 16:56 25.37595 51.59980 2808 ft 273 kts 19°
2026-05-07 16:57 25.39403 51.60664 3536 ft 276 kts 19°
2026-05-07 16:57 25.41232 51.61337 3999 ft 277 kts 19°
2026-05-07 16:57 25.43066 51.61968 4852 ft 275 kts 17°
2026-05-07 16:57 25.44896 51.62562 5672 ft 275 kts 17°
2026-05-07 16:58 25.46739 51.63137 6435 ft 276 kts 16°
2026-05-07 16:58 25.48617 51.63664 7115 ft 281 kts 14°
2026-05-07 16:58 25.50542 51.64137 7789 ft 285 kts 14°
2026-05-07 16:58 25.52497 51.64591 8469 ft 289 kts 14°
2026-05-07 16:59 25.54487 51.65052 9145 ft 294 kts 13°
2026-05-07 16:59 25.56502 51.65526 9810 ft 299 kts 13°
2026-05-07 16:59 25.58586 51.65730 10437 ft 304 kts 357°
2026-05-07 16:59 25.60435 51.65389 10796 ft 318 kts 349°
2026-05-07 17:00 25.62676 51.64858 10944 ft 339 kts 349°
2026-05-07 17:00 25.65011 51.64286 11401 ft 347 kts 348°
2026-05-07 17:00 25.67379 51.63703 12021 ft 350 kts 348°
2026-05-07 17:00 25.69768 51.63117 12670 ft 353 kts 348°
2026-05-07 17:01 25.72170 51.62512 13320 ft 356 kts 346°
2026-05-07 17:01 25.74499 51.61556 13921 ft 359 kts 337°
2026-05-07 17:01 25.76841 51.60452 14433 ft 364 kts 337°
2026-05-07 17:01 25.79194 51.59347 14921 ft 370 kts 337°
2026-05-07 17:02 25.81558 51.58199 15476 ft 372 kts 332°
2026-05-07 17:02 25.83742 51.56639 15995 ft 376 kts 320°
2026-05-07 17:02 25.85604 51.54587 16530 ft 378 kts 307°
2026-05-07 17:02 25.87049 51.52149 17090 ft 379 kts 296°
2026-05-07 17:03 25.88298 51.49558 17660 ft 382 kts 296°
2026-05-07 17:03 25.89559 51.46951 18213 ft 385 kts 296°
2026-05-07 17:03 25.90830 51.44323 18730 ft 387 kts 296°
2026-05-07 17:03 25.92109 51.41685 19267 ft 389 kts 296°
2026-05-07 17:04 25.93391 51.39036 19821 ft 390 kts 296°
2026-05-07 17:04 25.94677 51.36375 20383 ft 391 kts 296°
2026-05-07 17:04 25.95965 51.33707 20953 ft 393 kts 296°
2026-05-07 17:04 25.97258 51.31032 21523 ft 393 kts 297°
2026-05-07 17:05 25.98546 51.28339 22051 ft 396 kts 296°
2026-05-07 17:05 25.99825 51.25623 22584 ft 398 kts 296°
2026-05-07 17:05 26.01098 51.22887 23124 ft 399 kts 296°
2026-05-07 17:05 26.02372 51.20133 23603 ft 401 kts 296°
2026-05-07 17:06 26.03653 51.17373 24051 ft 403 kts 296°
2026-05-07 17:06 26.04942 51.14601 24491 ft 404 kts 296°
2026-05-07 17:06 26.06237 51.11824 24926 ft 405 kts 295°
2026-05-07 17:06 26.07538 51.09036 25348 ft 407 kts 295°
2026-05-07 17:07 26.08843 51.06244 25764 ft 408 kts 295°
2026-05-07 17:07 26.10154 51.03439 26169 ft 409 kts 295°
2026-05-07 17:07 26.11463 51.00621 26570 ft 410 kts 294°
2026-05-07 17:07 26.12716 50.97765 26959 ft 411 kts 292°
2026-05-07 17:08 26.13912 50.94874 27341 ft 412 kts 291°
2026-05-07 17:08 26.15082 50.91951 27710 ft 414 kts 290°
2026-05-07 17:08 26.16246 50.89021 27843 ft 411 kts 290°
2026-05-07 17:08 26.17406 50.86134 27871 ft 396 kts 290°
2026-05-07 17:09 26.18517 50.83399 27868 ft 391 kts 290°
2026-05-07 17:09 26.19641 50.80651 27868 ft 389 kts 290°
2026-05-07 17:09 26.20778 50.77877 27867 ft 388 kts 290°
2026-05-07 17:09 26.21898 50.75145 27867 ft 388 kts 290°
2026-05-07 17:10 26.23021 50.72411 27865 ft 388 kts 290°
2026-05-07 17:10 26.24197 50.69705 27866 ft 390 kts 296°
2026-05-07 17:10 26.25814 50.67251 27866 ft 397 kts 308°
2026-05-07 17:10 26.27905 50.65209 27865 ft 404 kts 321°
2026-05-07 17:11 26.30400 50.63701 27867 ft 413 kts 333°
2026-05-07 17:11 26.33109 50.62606 27875 ft 415 kts 335°
2026-05-07 17:11 26.35827 50.61523 27879 ft 415 kts 335°
2026-05-07 17:11 26.38547 50.60439 27877 ft 415 kts 335°
2026-05-07 17:12 26.41266 50.59358 27878 ft 416 kts 335°
2026-05-07 17:12 26.44007 50.58307 27878 ft 416 kts 336°
2026-05-07 17:12 26.46755 50.57289 27879 ft 417 kts 336°
2026-05-07 17:12 26.49514 50.56282 27874 ft 417 kts 336°
2026-05-07 17:13 26.52274 50.55278 27874 ft 417 kts 336°
2026-05-07 17:13 26.55030 50.54272 27889 ft 417 kts 336°
2026-05-07 17:13 26.57784 50.53253 27883 ft 417 kts 336°
2026-05-07 17:13 26.60535 50.52222 27882 ft 417 kts 336°
2026-05-07 17:14 26.63277 50.51187 27884 ft 416 kts 336°
2026-05-07 17:14 26.65098 50.50499 27886 ft 416 kts 336°
2026-05-07 17:14 26.67863 50.49413 27882 ft 414 kts 332°
2026-05-07 17:14 26.70400 50.47957 27881 ft 407 kts 322°
2026-05-07 17:15 26.72636 50.46070 27879 ft 400 kts 312°
2026-05-07 17:15 26.74649 50.43935 27885 ft 399 kts 311°
2026-05-07 17:15 26.76662 50.41799 27887 ft 399 kts 311°
2026-05-07 17:15 26.78679 50.39666 27882 ft 399 kts 311°
2026-05-07 17:16 26.80701 50.37529 27879 ft 399 kts 311°
2026-05-07 17:16 26.82722 50.35396 27877 ft 400 kts 311°
2026-05-07 17:16 26.84746 50.33259 27876 ft 400 kts 311°
2026-05-07 17:16 26.86766 50.31121 27878 ft 400 kts 311°
2026-05-07 17:17 26.88789 50.28979 27874 ft 400 kts 311°
2026-05-07 17:17 26.90806 50.26840 27874 ft 400 kts 311°
2026-05-07 17:17 26.92827 50.24696 27883 ft 400 kts 311°
2026-05-07 17:17 26.94845 50.22550 27888 ft 400 kts 311°
2026-05-07 17:18 26.96859 50.20406 27886 ft 399 kts 311°
2026-05-07 17:18 26.98873 50.18261 27887 ft 399 kts 311°
2026-05-07 17:18 27.00888 50.16116 27886 ft 399 kts 311°
2026-05-07 17:18 27.02904 50.13971 27890 ft 399 kts 311°
2026-05-07 17:19 27.04889 50.11798 27888 ft 397 kts 306°
2026-05-07 17:19 27.06683 50.09460 27888 ft 395 kts 305°
2026-05-07 17:19 27.08468 50.07115 27883 ft 395 kts 305°
2026-05-07 17:19 27.10256 50.04766 27880 ft 396 kts 305°
2026-05-07 17:20 27.12047 50.02412 27873 ft 397 kts 305°
2026-05-07 17:20 27.13840 50.00054 27870 ft 397 kts 305°
2026-05-07 17:20 27.15633 49.97696 27872 ft 397 kts 305°
2026-05-07 17:20 27.17426 49.95334 27881 ft 397 kts 304°
2026-05-07 17:21 27.19216 49.92970 27881 ft 398 kts 304°
2026-05-07 17:21 27.21032 49.90572 27879 ft 398 kts 304°
2026-05-07 17:21 27.22824 49.88207 27881 ft 398 kts 305°
2026-05-07 17:21 27.24619 49.85840 27885 ft 398 kts 305°
2026-05-07 17:22 27.26415 49.83474 27889 ft 398 kts 305°
2026-05-07 17:22 27.28211 49.81108 27890 ft 398 kts 305°
2026-05-07 17:22 27.30010 49.78739 27892 ft 398 kts 305°
2026-05-07 17:22 27.31806 49.76371 27893 ft 398 kts 304°
2026-05-07 17:23 27.33596 49.74002 27900 ft 398 kts 304°
2026-05-07 17:23 27.35389 49.71626 27899 ft 398 kts 304°
2026-05-07 17:23 27.37178 49.69252 27899 ft 398 kts 304°
2026-05-07 17:23 27.38966 49.66880 27898 ft 398 kts 304°
2026-05-07 17:24 27.40755 49.64505 27908 ft 398 kts 304°
2026-05-07 17:24 27.42544 49.62130 27906 ft 398 kts 304°
2026-05-07 17:24 27.44337 49.59756 27904 ft 398 kts 304°
2026-05-07 17:24 27.46126 49.57384 27905 ft 398 kts 304°
2026-05-07 17:25 27.47950 49.55037 27899 ft 401 kts 309°
2026-05-07 17:25 27.50068 49.52962 27901 ft 406 kts 315°
2026-05-07 17:25 27.52280 49.50985 27902 ft 406 kts 315°